Location: Azul
(36.7830°S, 59.8500°W)
Time: 09:33:39
(UTC-03:00)

UKube-1 - Pass Details

Date: 24 October 2021
Orbit: 611 x 617 km, 98.4° (Epoch: 07 December)

Event Time Altitude Azimuth Distance (km) Brightness Sun altitude
Exits shadow 19:59:00 - 68° (ENE) 2,062 ? -7.3°
Reaches altitude 10° 19:59:16 10° 70° (ENE) 1,989 ? -7.4°
Maximum altitude 20:02:12 18° 113° (ESE) 1,528 ? -7.9°
Drops below altitude 10° 20:05:10 10° 156° (SSE) 2,005 ? -8.5°
Sets 20:07:56 0° 174° (S) 2,919 ? -9.0°
